Regional Weather Roundup
Issued by NWS Upton, NY

Current Version | Previous Version | Graphics & Text | Print | Product List | Glossary Off
Versions: 1 2 3 4 5 6 7 8 9 10 11 12 13 14 15 16 17 18 19 20 21 22 23 24 25 26 27 28 29 30 31 32 33 34 35 36 37 38 39 40 41 42 43 44 45 46 47 48 49

000
ASUS41 KOKX 040004
RWROKX

REGIONAL WEATHER ROUNDUP
NATIONAL WEATHER SERVICE NEW YORK NY
800 PM EDT THU SEP 03 2015

NOTE: "FAIR" INDICATES FEW OR NO CLOUDS BELOW 12,000 FEET WITH NO
SIGNIFICANT WEATHER AND/OR OBSTRUCTIONS TO VISIBILITY.

NYZ071-072-176-178-NJZ106-104-040100-
NEW YORK CITY METRO AREA


CITY           SKY/WX    TMP DP  RH WIND       PRES   REMARKS
CENTRAL PARK   PTCLDY    85  63  47 S5        29.87R
LAGUARDIA APRT MOCLDY    86  64  47 S9        29.83R
KENNEDY INTL   MOCLDY    79  69  71 S3        29.85R
NEWARK/LIBERTY MOCLDY    86  65  49 S5        29.84R
BRNX BOT. GARD   N/A     82  64  54 SE5       29.85R
TETERBORO      PTCLDY    88  59  37 NE3       29.82R
$$

NYZ177-179-078>081-040100-
LONG ISLAND NEW YORK

CITY           SKY/WX    TMP DP  RH WIND       PRES   REMARKS
FARMINGDALE    CLEAR     80  67  64 S3        29.85R
ISLIP          MOCLDY    78  70  76 SW3       29.83S
SHIRLEY        CLEAR     78  72  81 S5        29.85S
WESTHAMPTON    PTCLDY    76  73  91 CALM      29.86S
MONTAUK POINT    N/A     77  73  87 VRB3      29.86F
$$

NYZ052-065-067-040100-
HUDSON VALLEY

CITY           SKY/WX    TMP DP  RH WIND       PRES   REMARKS
WHITE PLAINS   LGT RAIN  78  65  63 CALM      29.86R
NEWBURGH       PTCLDY    81  66  61 VRB5      29.88R
MONTGOMERY     MOCLDY    80  65  59 N3        29.87R
POUGHKEEPSIE   MOCLDY    82  68  62 N7        29.85R
ALBANY         MOCLDY    74  70  87 N6        29.90R
$$

NJZ001-105-106-008-010-013-015-019>022-104-040100-
NEW JERSEY

CITY           SKY/WX    TMP DP  RH WIND       PRES   REMARKS
NEWARK/LIBERTY MOCLDY    86  65  49 S5        29.84R
TETERBORO      PTCLDY    88  59  37 NE3       29.82R
CALDWELL       PTCLDY    83  65  54 CALM      29.85R
MORRISTOWN     MOCLDY    81  70  69 CALM      29.85R
SOMERVILLE     PTCLDY    81  67  62 CALM      29.82S
SUSSEX         PTCLDY    77  70  79 CALM      29.88R
ANDOVER          N/A     75  72  90 CALM      29.88R
TRENTON        PTCLDY    84  64  50 E5        29.84R
MILLVILLE      CLEAR     78  70  76 SE5       29.85R
ATLANTIC CITY  CLEAR     78  68  71 S3        29.85S
WRIGHTSTOWN    CLEAR     79  69  71 SE5       29.82R
TOMS RIVER     CLEAR     77  68  73 CALM      29.85S
BELMAR         CLEAR     79  64  61 S5        29.85S
$$

PAZ047>061-062-071-040100-
EASTERN PENNSYLVANIA

CITY           SKY/WX    TMP DP  RH WIND       PRES   REMARKS
PHILADELPHIA   PTCLDY    90  63  40 N5        29.84R HX  91
ALLENTOWN      CLOUDY    76  65  68 CALM      29.88R
SCRANTON       MOCLDY    76  69  79 E3        29.92R
$$

CTZ002-004>006-009-010-012-RIZ004-006-007-MAZ004-011-015-040100-
SOUTHERN NEW ENGLAND
 IN CT

CITY           SKY/WX    TMP DP  RH WIND       PRES   REMARKS
BRADLEY INTL   CLOUDY    81  68  64 N8        29.85R
HARTFORD       MOCLDY    82  67  60 CALM      29.84R
DANBURY        PTCLDY    75  63  66 SW3       29.87R
WTRBRY/OXFORD  CLEAR     79  64  61 CALM      29.89S
BRIDGEPORT     PTCLDY    83  63  50 CALM      29.84R
MERIDEN        MOCLDY    79  65  62 CALM      29.84R
NEW HAVEN      PTCLDY    79  66  64 CALM      29.84R
CHESTER        NOT AVBL
GROTON         PTCLDY    75  73  93 CALM      29.84S
WILLIMANTIC    MOCLDY    81  68  64 CALM      29.85R

 IN RI

CITY           SKY/WX    TMP DP  RH WIND       PRES   REMARKS
PROVIDENCE     CLOUDY    77  71  82 SE5       29.86R
BLOCK ISLAND   PTCLDY    75  73  94 SW6       29.86S
WESTERLY       MOCLDY    76  71  85 CALM      29.85S

 IN MA

CITY           SKY/WX    TMP DP  RH WIND       PRES   REMARKS
BOSTON         CLOUDY    73  67  81 E8        29.86R
WORCESTER      CLOUDY    79  65  62 CALM      29.91R
WESTFIELD      CLOUDY    79  67  66 NE5       29.87R
PROVINCETOWN     N/A     70  63  78 CALM      29.87R
NANTUCKET      PTCLDY    70  68  93 CALM      29.87R
$$

ANZ330-335-338-340-345-350-353-355-040100-
COASTAL MARINE OBSERVATIONS


STATION/POSITION TIME  SKY/WX   TEMP    WIND        PRES    VSBY  WAVE
                                AIR SEA DIR/SP/G                  HT/PER
                 (UTC)          (F)     (DEG/KT/KT) (MB)    (MI)  (FT/S)
NY HARB ENTRANCE 2250            79 79  160/  8/  8 1010.0          1/12
4S FIRE IS       NOT AVBL
20S FIRE ISLAND  2250            77 78  200/  4/  6 1010.5          1/13
GREAT SOUTH BAY  2300            78 81  230/  4/  6   N/A
23SW MTP         2350            75 74  220/  4/  6 1010.4          1/ 6
HUDSON CANYON    NOT AVBL
KINGS POINT      2300            85 75  180/  3/  6 1009.4
EXECUTION ROCKS  2300            82     150/  2/  4   N/A
CENTRAL LI SOUND NOT AVBL
EASTERN LI SOUND 2300            73 71  140/  4/  6   N/A
ROBBINS REEF     2300            80     170/ 14/ 15 1009.0
$$


>>>>>>>>>>>>>>>>>>>>>>>>>>>> KEY <<<<<<<<<<<<<<<<<<<<<<<<<<<
>                                                          <
>     SKY/WX - SKY CONDITION/PRESENT WEATHER               <
>     TMP    - TEMPERATURE IN FAHRENHEIT                   <
>     DP     - DEWPOINT IN FAHRENHEIT                      <
>     RH     - RELATIVE HUMIDITY IN PERCENT                <
>     WIND   - DIRECTION AND SPEED IN MPH                  <
>     PRES   - MEAN SEA LEVEL PRESSURE IN INCHES OF HG     <
>     WCI    - WIND CHILL INDEX                            <
>     VSB    - VISIBILITY IN MILES                         <
>     HX     - HEAT INDEX                                  <
>     TC     - TEMPERATURE IN CELSIUS                      <
>     VRB    - VARIABLE WIND DIRECTION                     <
>                                                          <
>>>>>>>>>>>>>>>>>>>>>>>>>>>> KEY <<<<<<<<<<<<<<<<<<<<<<<<<<<




USA.gov is the U.S. government's official web portal to all federal, state and local government web resources and services.